Weather in Demidovka

Russia / Belgorod Oblast     50°56′49″N   35°23′31″E
temp.,
°C
wind,
m/s
gust,
m/s
humid.,
%
clouds,
%
prec.,
mm/h
press.,
hPa
HPBL,
m
16 january, sun
sun1600:00−4nw7158844 0.0 1009573
03:00−4nw6128985 0.0 1012366
06:00−4nw6139182 0.1 1012478
09:00−2nw71289100 0.1 1014882
12:00−2nw6109398 0.1 1015780
15:00−2nw599197 0.3 1016572
18:00−4wnw4109276 0.1 1017257
21:00−10wsw339852 0.1 101735
17 january, mon
mon1700:00−9wsw359867 0.0 101658
03:00−8ssw4119640 0.0 1014175
06:00−5sw6159189 0.0 1010390
09:00−4ssw81785100 0.0 1006551
12:00−2sw91795100 0.7 1002837
15:00−2sw91695100 1.7 999795
18:00−1sw91694100 0.7 996768
21:00−1ssw91696100 1.2 994835
18 january, tue
tue1800:00−1sw71497100 1.4 992844
03:00−3wnw61094100 2.6 994620
06:00−5wsw489499 0.0 996282
09:00−5sw3896100 0.4 996383
12:00−6nw71194100 0.6 999704
15:00−6wnw51094100 1.3 1001623
18:00−6nnw71294100 0.4 1005625
21:00−7nnw71492100 0.7 1008627
19 january, wed
wed1900:00−7nnw71392100 0.2 1011682
03:00−8nnw71392100 0.7 1014736
06:00−9nnw71491100 0.2 1015646
09:00−11nnw61392100 0.3 1018482
12:00−11nnw5119271 0.0 1019385
15:00−11nnw499362 0.0 1020361
18:00−16nw359856 0.0 102156
21:00−20nw2210082 0.0 102213
20 january, thu
thu2000:00−21ne0110089 0.0 10229
03:00−21se1110073 0.0 10229
06:00−21sse2210048 0.0 102122
09:00−16sse249654 0.0 102167
12:00−11sse479092 0.0 1020191
15:00−9sse5109184 0.0 1018340
18:00−9sse61389100 0.0 1017297
21:00−8s71585100 0.0 1017396